G0TRT-13 Weather Reports


Display with metric or nautical units.
time (UTC)temp
F
wind
direction
speed
MPH
gust
MPH
rain 1hr
in
rain 24hr
in
rain mn
in
humidity
%
barometer
mb
20260510174542 53 79 1.0 5.0 0.00 0.00 0.00 64 1013.9
20260510174040 53 79 1.0 8.0 0.00 0.00 0.00 63 1014.2
20260510173538 53 79 2.0 8.0 0.00 0.00 0.00 62 1014.1
20260510173036 54 77 2.0 6.0 0.00 0.00 0.00 63 1014.2
20260510172536 54 74 2.0 6.0 0.00 0.00 0.00 64 1014.1
20260510172036 54 73 1.0 6.0 0.00 0.00 0.00 64 1014.1
20260510171532 54 82 1.0 4.0 0.00 0.00 0.00 64 1014.1
20260510171031 54 75 2.0 6.0 0.00 0.00 0.00 64 1014.2
20260510170546 54 75 2.0 7.0 0.00 0.00 0.00 64 1014.2
20260510170032 54 74 2.0 7.0 0.00 0.00 0.00 65 1014.4
20260510165532 54 73 1.0 5.0 0.00 0.00 0.00 66 1014.4
20260510165032 54 72 1.0 5.0 0.00 0.00 0.00 65 1014.3
20260510164532 54 71 2.0 6.0 0.00 0.00 0.00 66 1014.4
20260510164032 54 71 2.0 7.0 0.00 0.00 0.00 65 1014.4
20260510163530 54 70 2.0 7.0 0.00 0.00 0.00 65 1014.5
20260510163030 54 71 2.0 8.0 0.00 0.00 0.00 65 1014.6
20260510162530 54 72 2.0 8.0 0.00 0.00 0.00 65 1014.6
20260510162030 55 70 1.0 6.0 0.00 0.00 0.00 65 1014.7
20260510161530 54 72 1.0 4.0 0.00 0.00 0.00 66 1014.7
20260510161030 54 71 2.0 5.0 0.00 0.00 0.00 66 1014.8
20260510160529 54 69 2.0 7.0 0.00 0.00 0.00 65 1015.0
20260510160030 55 72 2.0 7.0 0.00 0.00 0.00 65 1015.0
20260510155530 55 73 2.0 7.0 0.00 0.00 0.00 65 1015.0
20260510155029 55 79 2.0 6.0 0.00 0.00 0.00 67 1015.1
20260510154530 54 79 3.0 7.0 0.00 0.00 0.00 66 1015.2
20260510154030 54 73 3.0 7.0 0.00 0.00 0.00 66 1015.2
20260510153529 54 79 2.0 6.0 0.00 0.00 0.00 66 1015.3
20260510153029 54 81 2.0 7.0 0.00 0.00 0.00 68 1015.2
20260510152524 54 79 3.0 10.0 0.00 0.00 0.00 67 1015.3
20260510152018 54 88 2.0 10.0 0.00 0.00 0.00 67 1015.4
20260510151515 54 73 2.0 8.0 0.00 0.00 0.00 68 1015.5
20260510151016 54 80 2.0 8.0 0.00 0.00 0.00 68 1015.5
20260510150513 54 102 2.0 10.0 0.00 0.00 0.00 68 1015.8
20260510150013 53 124 2.0 10.0 0.00 0.00 0.00 68 1015.8
20260510145514 53 79 2.0 7.0 0.00 0.00 0.00 68 1015.9
20260510145014 53 79 2.0 8.0 0.00 0.00 0.00 69 1016.0
20260510144512 53 132 3.0 9.0 0.00 0.00 0.00 69 1016.0
20260510144012 53 79 3.0 9.0 0.00 0.00 0.00 69 1016.0
20260510143512 53 79 2.0 7.0 0.00 0.00 0.00 69 1016.0
20260510143012 53 82 1.0 7.0 0.00 0.00 0.00 70 1016.1
20260510142508 53 82 2.0 6.0 0.00 0.00 0.00 70 1016.0
20260510142008 53 82 2.0 9.0 0.00 0.00 0.00 71 1016.1
20260510141508 53 79 2.0 9.0 0.00 0.00 0.00 70 1016.2
20260510141007 53 82 2.0 8.0 0.00 0.00 0.00 70 1016.2
20260510140507 53 79 1.0 8.0 0.00 0.00 0.00 70 1016.3
20260510140008 53 79 2.0 8.0 0.00 0.00 0.00 70 1016.3
20260510135508 53 79 2.0 8.0 0.00 0.00 0.00 70 1016.3
20260510135006 53 98 1.0 4.0 0.00 0.00 0.00 70 1016.3
20260510134506 53 81 2.0 7.0 0.00 0.00 0.00 71 1016.3
20260510134005 53 77 2.0 7.0 0.00 0.00 0.00 71 1016.4
20260510133503 53 79 3.0 10.0 0.00 0.00 0.00 72 1016.4
20260510133007 53 80 2.0 10.0 0.00 0.00 0.00 71 1016.3
20260510132504 53 76 2.0 7.0 0.00 0.00 0.00 72 1016.4
20260510132007 53 79 2.0 8.0 0.00 0.00 0.00 72 1016.5
20260510131504 53 80 2.0 8.0 0.00 0.00 0.00 72 1016.3
20260510131005 53 91 2.0 7.0 0.00 0.00 0.00 72 1016.4
20260510130504 53 86 1.0 6.0 0.00 0.00 0.00 71 1016.5
20260510130006 53 131 2.0 8.0 0.00 0.00 0.00 71 1016.5
20260510125503 53 80 3.0 9.0 0.00 0.00 0.00 71 1016.6
20260510125004 53 73 3.0 9.0 0.00 0.00 0.00 71 1016.5
20260510124503 54 79 2.0 9.0 0.00 0.00 0.00 70 1016.6
20260510124004 54 80 1.0 6.0 0.00 0.00 0.00 71 1016.6
20260510123504 54 82 2.0 7.0 0.00 0.00 0.00 71 1016.6
20260510123004 53 79 2.0 8.0 0.00 0.00 0.00 71 1016.6
20260510122502 53 79 3.0 9.0 0.00 0.00 0.00 70 1016.6
20260510122004 54 81 2.0 9.0 0.00 0.00 0.00 70 1016.7
20260510121503 54 86 2.0 11.0 0.00 0.00 0.00 71 1016.7
20260510121005 54 73 3.0 11.0 0.00 0.00 0.00 70 1016.7
20260510120502 54 72 3.0 7.0 0.00 0.00 0.00 69 1016.6
20260510120004 55 73 2.0 7.0 0.00 0.00 0.00 69 1016.7
20260510115503 55 80 2.0 8.0 0.00 0.00 0.00 69 1016.8
20260510115004 55 78 2.0 8.0 0.00 0.00 0.00 67 1016.8
20260510114501 56 82 2.0 8.0 0.00 0.00 0.00 68 1016.9
20260510114004 56 79 3.0 8.0 0.00 0.00 0.00 67 1016.9
20260510113502 56 73 2.0 8.0 0.00 0.00 0.00 67 1017.0
20260510113010 56 80 2.0 7.0 0.00 0.00 0.00 67 1017.0
20260510112504 57 77 2.0 7.0 0.00 0.00 0.00 67 1017.0
20260510112003 57 139 1.0 7.0 0.00 0.00 0.00 66 1017.1
20260510111502 56 122 2.0 7.0 0.00 0.00 0.00 68 1017.1
20260510111004 57 86 2.0 10.0 0.00 0.00 0.00 66 1017.0
20260510110503 57 75 3.0 10.0 0.00 0.00 0.00 67 1017.1
20260510110005 57 84 3.0 9.0 0.00 0.00 0.00 66 1017.1
20260510105502 57 99 2.0 9.0 0.00 0.00 0.00 65 1017.2
20260510105004 57 77 3.0 11.0 0.00 0.00 0.00 67 1017.2
20260510104503 57 134 3.0 11.0 0.00 0.00 0.00 66 1017.2
20260510104004 57 120 2.0 6.0 0.00 0.00 0.00 67 1017.3
20260510103502 58 289 2.0 6.0 0.00 0.00 0.00 67 1017.2
20260510103004 57 53 3.0 10.0 0.00 0.00 0.00 67 1017.1
20260510102503 57 41 3.0 10.0 0.00 0.00 0.00 66 1017.2
20260510102006 57 172 2.0 8.0 0.00 0.00 0.00 67 1017.2
20260510101504 56 150 1.0 7.0 0.00 0.00 0.00 68 1017.3
20260510101006 56 155 2.0 8.0 0.00 0.00 0.00 67 1017.3
20260510100504 56 228 2.0 8.0 0.00 0.00 0.00 67 1017.3
20260510095959 56 209 2.0 7.0 0.00 0.00 0.00 68 1017.4
20260510095452 55 15 2.0 9.0 0.00 0.00 0.00 69 1017.5
20260510094945 55 57 2.0 9.0 0.00 0.00 0.00 69 1017.3
20260510094440 55 182 2.0 7.0 0.00 0.00 0.00 69 1017.4
20260510093934 55 160 2.0 9.0 0.00 0.00 0.00 71 1017.5
20260510093431 54 220 2.0 9.0 0.00 0.00 0.00 70 1017.5
20260510092931 54 160 2.0 7.0 0.00 0.00 0.00 72 1017.5
20260510092432 53 181 2.0 8.0 0.00 0.00 0.00 72 1017.6
20260510091932 53 180 3.0 8.0 0.00 0.00 0.00 72 1017.7
20260510091433 53 266 2.0 6.0 0.00 0.00 0.00 71 1017.8
20260510090933 53 265 2.0 8.0 0.00 0.00 0.00 72 1017.8
20260510090431 53 265 2.0 8.0 0.00 0.00 0.00 72 1017.9
20260510085931 53 264 2.0 8.0 0.00 0.00 0.00 72 1017.8
20260510085431 53 264 3.0 8.0 0.00 0.00 0.00 72 1017.7
20260510084930 53 264 3.0 8.0 0.00 0.00 0.00 72 1017.8
20260510084430 53 264 3.0 8.0 0.00 0.00 0.00 72 1017.7
20260510083930 53 264 3.0 9.0 0.00 0.00 0.00 72 1017.8
20260510083430 53 264 3.0 9.0 0.00 0.00 0.00 72 1017.9
20260510082930 53 264 2.0 7.0 0.00 0.00 0.00 73 1017.9
20260510082431 53 302 2.0 9.0 0.00 0.00 0.00 74 1018.0
20260510081930 52 288 3.0 9.0 0.00 0.00 0.00 74 1017.9
20260510081429 52 95 3.0 9.0 0.00 0.00 0.00 74 1017.9
20260510080924 52 96 2.0 9.0 0.00 0.00 0.00 73 1018.0
20260510080417 52 98 3.0 9.0 0.00 0.00 0.00 73 1018.0
20260510075911 52 99 3.0 11.0 0.00 0.00 0.00 76 1018.0
20260510075412 51 101 3.0 11.0 0.00 0.00 0.00 75 1018.1
20260510074910 51 105 2.0 8.0 0.00 0.00 0.00 76 1018.0
20260510074410 51 134 3.0 8.0 0.00 0.00 0.00 75 1017.9
20260510073909 51 90 2.0 6.0 0.00 0.00 0.00 75 1017.9
20260510073407 51 0 3.0 10.0 0.00 0.00 0.00 76 1017.8
20260510072906 51 16 3.0 10.0 0.00 0.00 0.00 75 1017.8
20260510072406 51 349 3.0 8.0 0.00 0.00 0.00 76 1017.8
20260510071906 51 79 2.0 8.0 0.00 0.00 0.00 77 1017.8
20260510071403 50 150 2.0 6.0 0.00 0.00 0.00 78 1017.7
20260510070903 50 86 2.0 6.0 0.00 0.00 0.00 78 1017.7
20260510070404 50 301 2.0 7.0 0.00 0.00 0.00 79 1017.6
20260510065903 50 300 1.0 7.0 0.00 0.00 0.00 79 1017.7
20260510065404 49 72 1.0 6.0 0.00 0.00 0.00 80 1017.5
20260510064903 49 84 2.0 7.0 0.00 0.00 0.00 80 1017.6
20260510064403 48 105 2.0 8.0 0.00 0.00 0.00 80 1017.6
20260510063903 48 92 2.0 8.0 0.00 0.00 0.00 80 1017.6
20260510063402 48 105 2.0 9.0 0.00 0.00 0.00 80 1017.5
20260510062903 48 4 2.0 9.0 0.00 0.00 0.00 80 1017.5
20260510062359 48 88 1.0 7.0 0.00 0.00 0.00 80 1017.4
20260510061853 49 91 1.0 7.0 0.00 0.00 0.00 80 1017.4
20260510061347 49 99 2.0 6.0 0.00 0.00 0.00 81 1017.6
20260510060847 48 99 2.0 11.0 0.00 0.00 0.00 81 1017.5
20260510060345 48 87 2.0 11.0 0.00 0.00 0.00 82 1017.6
20260510055847 48 86 1.0 6.0 0.00 0.00 0.00 83 1017.6
20260510055346 47 101 2.0 8.0 0.00 0.00 0.00 83 1017.6
20260510054845 47 91 2.0 8.0 0.00 0.00 0.00 83 1017.4
20260510054344 47 103 2.0 7.0 0.00 0.00 0.00 83 1017.5
20260510053841 47 90 2.0 7.0 0.00 0.00 0.00 84 1017.6
20260510053341 47 84 1.0 5.0 0.00 0.00 0.00 84 1017.5
20260510052841 47 215 1.0 5.0 0.00 0.00 0.00 84 1017.6
20260510052344 47 89 1.0 5.0 0.00 0.00 0.00 84 1017.7
20260510051842 47 83 1.0 4.0 0.00 0.00 0.00 84 1017.7
20260510050838 47 80 1.0 5.0 0.00 0.00 0.00 84 1017.6
20260510050340 46 80 1.0 5.0 0.00 0.00 0.00 85 1017.7
20260510045840 46 96 0.0 4.0 0.00 0.00 0.00 85 1017.6
20260510045337 46 88 0.0 3.0 0.00 0.00 0.00 85 1017.6
20260510044837 46 155 1.0 4.0 0.00 0.00 0.00 85 1017.6
20260510044337 46 92 0.0 4.0 0.00 0.00 0.00 85 1017.6
20260510043837 46 91 0.0 4.0 0.00 0.00 0.00 85 1017.6
20260510043337 46 215 0.0 5.0 0.00 0.00 0.00 85 1017.5
20260510042837 46 219 1.0 5.0 0.00 0.00 0.00 85 1017.5
20260510042333 46 91 1.0 4.0 0.00 0.00 0.00 85 1017.5
20260510041833 46 144 1.0 5.0 0.00 0.00 0.00 85 1017.5
20260510041333 46 83 1.0 6.0 0.00 0.00 0.00 85 1017.5
20260510040832 46 93 1.0 6.0 0.00 0.00 0.00 85 1017.5
20260510040333 46 181 1.0 4.0 0.00 0.00 0.00 85 1017.5
20260510035833 46 187 0.0 4.0 0.00 0.00 0.00 85 1017.6
20260510035331 46 118 0.0 4.0 0.00 0.00 0.00 84 1017.5
20260510034831 46 111 0.0 4.0 0.00 0.00 0.00 84 1017.7
20260510034330 46 91 1.0 4.0 0.00 0.00 0.00 84 1017.8
20260510033828 46 137 1.0 4.0 0.00 0.00 0.00 83 1017.8
20260510033328 46 91 1.0 6.0 0.00 0.00 0.00 83 1017.9
20260510032827 46 93 1.0 6.0 0.00 0.00 0.00 83 1018.0
20260510032325 47 89 0.0 6.0 0.00 0.00 0.00 82 1017.9
20260510031826 47 90 0.0 8.0 0.00 0.00 0.00 82 1017.9
20260510031326 47 82 0.0 8.0 0.00 0.00 0.00 81 1018.0
20260510030824 47 209 0.0 4.0 0.00 0.00 0.00 80 1017.9
20260510030321 47 127 0.0 4.0 0.00 0.00 0.00 79 1018.1
20260510025820 47 110 0.0 5.0 0.00 0.00 0.00 79 1018.1
20260510025318 47 206 0.0 5.0 0.00 0.00 0.00 78 1018.1
20260510024816 47 167 0.0 4.0 0.00 0.00 0.00 78 1018.1
20260510024316 47 118 0.0 4.0 0.00 0.00 0.00 77 1018.0
20260510023816 48 110 1.0 7.0 0.00 0.00 0.00 77 1018.0
20260510023311 48 174 1.0 7.0 0.00 0.00 0.00 76 1018.0
20260510022812 48 89 1.0 7.0 0.00 0.00 0.00 75 1018.0
20260510022309 48 89 1.0 7.0 0.00 0.00 0.00 75 1017.9
20260510021808 48 103 1.0 4.0 0.00 0.00 0.00 74 1018.0
20260510021306 48 105 1.0 4.0 0.00 0.00 0.00 74 1018.0
20260510020806 48 108 1.0 6.0 0.00 0.00 0.00 74 1018.1
20260510015759 48 106 1.0 6.0 0.00 0.00 0.00 73 1017.8
20260510015253 48 108 1.0 8.0 0.00 0.00 0.00 73 1017.8
20260510014747 48 202 1.0 8.0 0.00 0.00 0.00 73 1017.6
20260510014247 48 97 1.0 5.0 0.00 0.00 0.00 73 1017.6
20260510013746 48 89 0.0 5.0 0.00 0.00 0.00 73 1017.7
20260510013243 49 101 0.0 3.0 0.00 0.00 0.00 72 1017.8
20260510012741 49 131 0.0 4.0 0.00 0.00 0.00 72 1017.9
20260510012242 49 106 1.0 4.0 0.00 0.00 0.00 72 1017.9
20260510011737 49 89 1.0 5.0 0.00 0.00 0.00 71 1017.9
20260510011237 49 94 1.0 5.0 0.00 0.00 0.00 71 1017.8
20260510010737 49 93 1.0 5.0 0.00 0.00 0.00 70 1018.0
20260510010235 49 108 1.0 5.0 0.00 0.00 0.00 69 1017.9
20260510005734 50 99 1.0 5.0 0.00 0.00 0.00 68 1017.8
20260510005231 50 84 1.0 5.0 0.00 0.00 0.00 67 1017.7
20260510004731 50 104 1.0 6.0 0.00 0.00 0.00 67 1017.6
20260510004230 51 103 2.0 6.0 0.00 0.00 0.00 66 1017.7
20260510003731 51 105 1.0 6.0 0.00 0.00 0.00 65 1017.6
20260510003230 51 89 2.0 8.0 0.00 0.00 0.00 65 1017.7
20260510002731 51 107 2.0 8.0 0.00 0.00 0.00 64 1017.5
20260510002231 51 107 2.0 6.0 0.00 0.00 0.00 64 1017.6
20260510001729 51 108 2.0 8.0 0.00 0.00 0.00 63 1017.6
20260510001231 52 108 2.0 8.0 0.00 0.00 0.00 63 1017.5
20260510000731 52 84 2.0 7.0 0.00 0.00 0.00 63 1017.6
20260510000226 52 106 2.0 10.0 0.00 0.00 0.00 62 1017.6
20260509235718 52 84 2.0 10.0 0.00 0.00 0.00 62 1017.4
20260509235212 53 106 2.0 7.0 0.00 0.00 0.00 62 1017.6
20260509234711 53 110 2.0 6.0 0.00 0.00 0.00 61 1017.6
20260509234210 53 96 1.0 5.0 0.00 0.00 0.00 63 1017.5
20260509233711 53 96 1.0 5.0 0.00 0.00 0.00 63 1017.5
20260509233212 53 89 1.0 6.0 0.00 0.00 0.00 63 1017.6
20260509232708 53 211 1.0 6.0 0.00 0.00 0.00 64 1017.5
20260509232207 53 108 1.0 7.0 0.00 0.00 0.00 64 1017.4
20260509232002 54 113 2.0 7.0 0.00 0.00 0.00 64 1017.3
20260509231204 54 108 1.0 5.0 0.00 0.00 0.00 64 1017.3
20260509230709 54 105 1.0 4.0 0.00 0.00 0.00 63 1017.2
20260509230202 54 107 1.0 6.0 0.00 0.00 0.00 64 1017.2
20260509225703 54 108 2.0 6.0 0.00 0.00 0.00 63 1017.3
20260509225203 54 106 2.0 6.0 0.00 0.00 0.00 63 1017.2
20260509224722 54 110 1.0 6.0 0.00 0.00 0.00 64 1017.2
20260509224234 53 93 0.0 3.0 0.00 0.00 0.00 67 1017.1
20260509224159 54 106 1.0 5.0 0.00 0.00 0.00 66 1017.1
20260509223407 54 93 0.0 1.0 0.00 0.00 0.00 67 1017.0
20260509223138 54 93 0.0 1.0 0.00 0.00 0.00 67 1017.0
20260509222632 54 91 0.0 1.0 0.00 0.00 0.00 67 1017.1
20260509222130 54 95 0.0 3.0 0.00 0.00 0.00 66 1017.2
20260509221630 55 84 0.0 3.0 0.00 0.00 0.00 66 1017.2
20260509221129 55 101 0.0 1.0 0.00 0.00 0.00 66 1017.2
20260509220632 55 174 0.0 2.0 0.00 0.00 0.00 65 1017.3
20260509220147 56 150 1.0 3.0 0.00 0.00 0.00 65 1017.2
20260509215619 56 94 1.0 4.0 0.00 0.00 0.00 64 1017.2
20260509215108 56 94 1.0 6.0 0.00 0.00 0.00 63 1017.2
20260509214607 56 94 1.0 6.0 0.00 0.00 0.00 63 1017.2
20260509214106 57 95 1.0 5.0 0.00 0.00 0.00 63 1017.1
20260509213604 57 96 1.0 6.0 0.00 0.00 0.00 62 1017.1
20260509213104 57 94 1.0 6.0 0.00 0.00 0.00 62 1016.9
20260509212607 57 94 1.0 5.0 0.00 0.00 0.00 62 1016.9
20260509212123 57 91 1.0 4.0 0.00 0.00 0.00 62 1016.8
20260509211604 57 94 1.0 5.0 0.00 0.00 0.00 63 1016.8
20260509211104 56 100 1.0 5.0 0.00 0.00 0.00 63 1016.7
20260509210602 56 95 1.0 4.0 0.00 0.00 0.00 64 1016.7
20260509205602 56 127 0.0 1.0 0.00 0.00 0.00 66 1016.6
20260509204603 56 131 0.0 0.0 0.00 0.00 0.00 66 1016.5
20260509204056 56 132 0.0 1.0 0.00 0.00 0.00 65 1016.5
20260509203551 56 132 0.0 1.0 0.00 0.00 0.00 65 1016.5
20260509203044 57 132 0.0 0.0 0.00 0.00 0.00 64 1016.5
20260509202544 57 132 0.0 0.0 0.00 0.00 0.00 64 1016.6
20260509202043 57 132 0.0 1.0 0.00 0.00 0.00 64 1016.4
20260509201540 58 131 0.0 1.0 0.00 0.00 0.00 63 1016.4
20260509201038 58 131 0.0 1.0 0.00 0.00 0.00 63 1016.3
20260509200536 58 113 0.0 0.0 0.00 0.00 0.00 62 1016.2
20260509200035 59 113 0.0 0.0 0.00 0.00 0.00 62 1016.3
20260509195533 59 113 0.0 1.0 0.00 0.00 0.00 61 1016.0
20260509195046 60 113 0.0 1.0 0.00 0.00 0.00 61 1016.1
20260509194555 60 105 0.0 1.0 0.00 0.00 0.00 60 1016.0
20260509194052 60 99 0.0 1.0 0.00 0.00 0.00 60 1016.0
20260509193538 61 98 0.0 1.0 0.00 0.00 0.00 60 1016.0
20260509193030 61 98 0.0 3.0 0.00 0.00 0.00 59 1015.9
20260509192531 61 98 0.0 3.0 0.00 0.00 0.00 59 1015.9
20260509192030 62 98 0.0 3.0 0.00 0.00 0.00 59 1015.8
20260509191531 62 101 0.0 3.0 0.00 0.00 0.00 58 1015.9
20260509191030 63 98 0.0 2.0 0.00 0.00 0.00 58 1015.8
20260509190532 63 99 0.0 4.0 0.00 0.00 0.00 58 1015.8
20260509190031 63 98 1.0 4.0 0.00 0.00 0.00 57 1015.9
20260509185533 64 120 1.0 5.0 0.00 0.00 0.00 56 1015.8
20260509185019 64 96 1.0 5.0 0.00 0.00 0.00 56 1015.9
20260509184529 64 104 0.0 2.0 0.00 0.00 0.00 55 1015.8
20260509184010 64 94 1.0 3.0 0.00 0.00 0.00 56 1015.8
20260509183511 65 141 1.0 3.0 0.00 0.00 0.00 55 1015.7
20260509183013 65 98 1.0 3.0 0.00 0.00 0.00 54 1015.8
20260509183007 65 98 1.0 5.0 0.00 0.00 0.00 54 1015.7
20260509182751 65 98 1.0 5.0 0.00 0.00 0.00 54 1015.7
20260509182519 65 98 1.0 5.0 0.00 0.00 0.00 54 1015.7
20260509182006 65 146 1.0 5.0 0.00 0.00 0.00 54 1015.8
20260509181954 65 101 1.0 5.0 0.00 0.00 0.00 54 1015.8
20260509181006 65 97 1.0 5.0 0.00 0.00 0.00 54 1015.5
20260509180522 65 97 2.0 6.0 0.00 0.00 0.00 53 1015.7
20260509175955 65 100 2.0 7.0 0.00 0.00 0.00 52 1015.5
20260509175514 65 101 2.0 7.0 0.00 0.00 0.00 51 1015.4
20260509174954 65 100 1.0 6.0 0.00 0.00 0.00 53 1015.5